sat.trackr.live / text

‹ back to catalog

ONEWEB-0215

NORAD 48800 · 2021-045AK

PAYLOAD ACTIVE UNKNOWN

§ Identity

Operator
Country
UK
Launch date
2021-05-28
Launch site
VOSTO
Launch vehicle
Mass (kg)
RCS (m²)

Purposes: comms

External: N2YO · Heavens-Above · Gunter

§ Orbital elements

Epoch: 2026-05-25T01:25:11.409312Z

Period
109.46 min
Inclination
87.8999°
Eccentricity
0.0001270
Mean motion
13.15550441 rev/d
Perigee alt
1,200.8 km
Apogee alt
1,202.7 km
Semi-major
7,579.9 km
B*
-2.4281e-4
RAAN
263.7868°
Arg perigee
87.0596°
Mean anomaly
273.0679°
Rev number
24,125

§ Raw data

ONEWEB-02151 48800U 21045AK  26145.05915983 -.00000079  00000+0 -24281-3 0  99972 48800  87.8999 263.7868 0001270  87.0596 273.0679 13.15550441241254

JSON: /api/v1/satellites/48800 · /tle

For live sub-satellite position, see the globe view (requires WebGL).

§ Visibility from observer

Set your observer location to see the next 7 days of passes ≥ 10°. The values pass through the URL so the page stays shareable.

No JS? Fill the form by hand. The geolocation button needs JavaScript.